sat.trackr.live / text

‹ back to catalog

STARLINK-32125

NORAD 60260 · 2024-131F

PAYLOAD ACTIVE UNKNOWN

§ Identity

Operator
Country
US
Launch date
2024-07-27
Launch site
AFETR
Launch vehicle
Mass (kg)
RCS (m²)

Purposes: comms

External: N2YO · Heavens-Above · Gunter

§ Orbital elements

Epoch: 2026-05-25T04:13:12.150912Z

Period
94.11 min
Inclination
53.1604°
Eccentricity
0.0001159
Mean motion
15.30188758 rev/d
Perigee alt
474.5 km
Apogee alt
476.0 km
Semi-major
6,853.4 km
B*
-4.4363e-5
RAAN
56.8351°
Arg perigee
78.1742°
Mean anomaly
281.9389°
Rev number
10,343

§ Raw data

STARLINK-321251 60260U 24131F   26145.17583508 -.00001672  00000+0 -44363-4 0  99912 60260  53.1604  56.8351 0001159  78.1742 281.9389 15.30188758103435

JSON: /api/v1/satellites/60260 · /tle

For live sub-satellite position, see the globe view (requires WebGL).

§ Visibility from observer

Set your observer location to see the next 7 days of passes ≥ 10°. The values pass through the URL so the page stays shareable.

No JS? Fill the form by hand. The geolocation button needs JavaScript.